Tracking 29892 objects as of 21-Nov-2024
HD Live streaming from Space Station
objects crossing your sky now

STARLINK-5280

Track STARLINK-5280 now!
10-day predictions
STARLINK-5280 is classified as:


NORAD ID: 54166
Int'l Code: 2022-141K
Perigee: 545.8 km
Apogee: 548.0 km
Inclination: 53.2 °
Period: 95.4 minutes
Semi major axis: 6917 km
RCS: Unknown
Launch date: October 28, 2022
Source: United States (US)
Launch site: AIR FORCE WESTERN TEST RANGE (AFWTR)
Your satellite tracking list
Your tracking list is empty




NASA's NSSDC Master Catalog

Two Line Element Set (TLE):
1 54166U 22141K   24325.39669389  .00002712  00000-0  18842-3 0  9999
2 54166  53.2171 333.4316 0001640 148.9753 211.1337 15.08835118114255
Source of the keplerian elements: AFSPC